Location: Newark
(45.2500°N, 7.5833°E)
Time: 16:58:57
(UTC+00:00)

Explorer 7 - All Passes

Search period start: 28 January 2020 00:00
Search period end: 07 February 2020 00:00
Orbit: 485 x 679 km, 50.3° (Epoch: 28 January)

Date Brightness Start Highest point End Pass type
(mag) Time Alt. Az. Time Alt. Az. Time Alt. Az.
28 Jan - 00:28:38 10° WNW 00:32:11 38° N 00:35:47 10° ENE night (unlit)
28 Jan - 02:09:09 10° WNW 02:12:57 85° NNE 02:16:54 10° ESE night (unlit)
28 Jan - 03:50:09 10° W 03:53:06 21° SW 03:56:08 10° S visible
28 Jan - 19:33:32 10° SSE 19:35:39 14° SE 19:37:43 10° E night (unlit)
28 Jan - 21:11:48 10° SW 21:15:36 73° SSE 21:19:21 10° ENE night (unlit)
28 Jan - 22:52:40 10° W 22:56:16 41° N 22:59:51 10° ENE night (unlit)
29 Jan - 00:33:38 10° WNW 00:37:14 43° N 00:40:55 10° E night (unlit)
29 Jan - 02:14:06 10° WNW 02:17:52 66° SSW 02:21:46 10° SE night (unlit)
29 Jan - 03:55:59 10° WSW 03:57:49 13° SW 03:59:40 10° SSW night (unlit)
29 Jan - 19:37:16 10° SSW 19:40:21 23° SE 19:43:23 10° E night (unlit)
29 Jan - 21:16:43 10° WSW 21:20:31 78° NNW 21:24:17 10° ENE night (unlit)
29 Jan - 22:57:48 10° WNW 23:01:20 37° N 23:04:53 10° ENE night (unlit)
30 Jan - 00:38:35 10° WNW 00:42:16 52° NNE 00:46:02 10° E night (unlit)
30 Jan - 02:19:07 10° WNW 02:22:44 43° SW 02:26:27 10° SE night (unlit)
30 Jan - 19:41:33 10° SSW 19:45:08 35° SE 19:48:37 10° ENE visible
30 Jan - 21:21:44 10° W 21:25:30 58° NNW 21:29:13 10° ENE night (unlit)
30 Jan - 23:02:53 10° WNW 23:06:25 37° N 23:09:57 10° ENE night (unlit)
31 Jan - 00:43:31 10° WNW 00:47:16 68° NNE 00:51:06 10° ESE night (unlit)
31 Jan - 02:24:17 10° W 02:27:32 27° SW 02:30:53 10° SSE night (unlit)
31 Jan - 18:09:34 10° SE 18:10:07 10° SE 18:10:41 10° ESE visible
31 Jan - 19:46:09 10° SW 19:49:59 55° SSE 19:53:41 10° ENE visible
31 Jan - 21:26:50 10° W 21:30:32 46° NNW 21:34:10 10° ENE night (unlit)
31 Jan - 23:07:56 10° WNW 23:11:30 39° N 23:15:04 10° ENE night (unlit)
01 Feb - 00:48:27 10° WNW 00:52:14 86° SSW 00:56:04 10° ESE night (unlit)
01 Feb - 02:29:42 10° W 02:32:17 17° SW 02:34:54 10° S night (unlit)
01 Feb - 18:12:11 10° S 18:14:49 17° SE 18:17:23 10° E visible
01 Feb - 19:50:57 10° WSW 19:54:52 83° SSE 19:58:40 10° ENE visible
01 Feb - 21:31:58 10° W 21:35:35 40° N 21:39:09 10° ENE night (unlit)
01 Feb - 23:12:55 10° WNW 23:16:33 45° NNE 23:20:12 10° E night (unlit)
02 Feb - 00:53:25 10° WNW 00:57:07 57° SSW 01:00:53 10° SE night (unlit)
02 Feb - 02:36:11 10° WSW 02:36:58 10° SW 02:37:44 10° SW night (unlit)
02 Feb - 18:16:10 10° SSW 18:19:33 27° SE 18:22:50 10° E visible
02 Feb - 19:55:55 10° WSW 19:59:49 71° NNW 20:03:36 10° ENE visible
02 Feb - 21:37:06 10° WNW 21:40:39 37° N 21:44:11 10° ENE night (unlit)
02 Feb - 23:17:52 10° WNW 23:21:35 56° NNE 23:25:18 10° E night (unlit)
03 Feb - 00:58:28 10° WNW 01:01:57 36° SW 01:05:30 10° SSE night (unlit)
03 Feb - 18:20:34 10° SW 18:24:21 41° SE 18:28:00 10° ENE visible
03 Feb - 20:00:58 10° W 20:04:48 53° NNW 20:08:31 10° ENE visible
03 Feb - 21:42:09 10° WNW 21:45:44 37° N 21:49:16 10° ENE night (unlit)
03 Feb - 23:22:47 10° WNW 23:26:34 76° NNE 23:30:20 10° ESE night (unlit)
04 Feb - 01:03:42 10° W 01:06:44 23° SW 01:09:49 10° SSE night (unlit)
04 Feb - 16:47:25 10° SSE 16:49:16 13° SE 16:51:05 10° ESE daylight
04 Feb - 18:25:14 10° SW 18:29:13 64° SSE 18:33:01 10° ENE visible
04 Feb - 20:06:05 10° W 20:09:50 44° NNW 20:13:28 10° ENE visible
04 Feb - 21:47:11 10° WNW 21:50:49 41° N 21:54:23 10° E night (unlit)
04 Feb - 23:27:44 10° WNW 23:31:29 76° SSW 23:35:16 10° ESE night (unlit)
05 Feb - 01:09:19 10° W 01:11:27 15° SW 01:13:37 10° S night (unlit)
05 Feb - 16:50:54 10° S 16:53:59 20° SE 16:56:57 10° E daylight
05 Feb - 18:30:05 10° WSW 18:34:07 88° NNW 18:37:58 10° ENE visible
05 Feb - 20:11:13 10° WNW 20:14:53 39° N 20:18:28 10° ENE visible
05 Feb - 21:52:10 10° WNW 21:55:51 48° NNE 21:59:30 10° E night (unlit)
05 Feb - 23:32:43 10° WNW 23:36:22 49° SW 23:40:01 10° SE night (unlit)
06 Feb - 16:55:02 10° SSW 16:58:44 32° SE 17:02:16 10° ENE daylight
06 Feb - 18:35:05 10° WSW 18:39:05 65° NNW 18:42:54 10° ENE visible
06 Feb - 20:16:20 10° WNW 20:19:58 37° N 20:23:31 10° ENE visible
06 Feb - 21:57:06 10° WNW 22:00:52 61° NNE 22:04:35 10° ESE night (unlit)
06 Feb - 23:37:49 10° WNW 23:41:11 31° SW 23:44:33 10° SSE night (unlit)
